Погода в Бельско-Бяле

Польша     49°48′53″N   19°01′54″E
темп.,
°C
ветер,
м/с
пор.,
м/с
влажн.,
%
обл.,
%
осадки,
мм/ч
давл.,
гПа
погр.,
м
27 февраля, сб
сб2701:00+2сз2495100 4.8 1029309
04:00+2сз2596100 0.8 1028379
07:00+2сз3795100 1.1 1030483
10:00+2зсз3691100 0.3 1031551
13:00+2сз3693100 0.3 1032512
16:00+2сз3793100 0.1 1033543
19:00+1ссз2694100 0.2 1035452
22:00+1сз1494100 0.3 1035307
28 февраля, вс
вс2801:000з239597 0.5 1036115
04:000зсз129993 0.1 103644
07:000сз129596 0.1 1035218
10:00+1зсз2289100 0.0 1035336
13:00+3зсз226985 0.1 1034501
16:00+4з22680 0.0 1032428
19:00+1юз22790 0.0 103330
22:00+2з127945 0.0 103360
1 марта, пн
пн101:00+2зсз129673 0.0 1034129
04:00+1ссз129988 0.0 103385
07:00+1с129794 0.0 1034116
10:00+3ссз128898 0.0 1035289
13:00+4ссв128399 0.0 1035427
16:00+4св118091 0.0 1034449
19:00+1юв119158 0.0 103522
22:00+1ю12900 0.0 103622
2 марта, вт
вт201:00+1ю22870 0.0 103623
04:00+1ююз22840 0.0 103524
07:00+1ююз22830 0.0 103536
10:00+7юз12600 0.0 1034253
13:00+10зсз12520 0.0 1034524
16:00+9сз11640 0.0 103383
19:00+5ююз22790 0.0 103322
22:00+4ююз22820 0.0 103424
3 марта, ср
ср301:00+3ю23800 0.0 103326
04:00+2ю23790 0.0 103326
07:00+2ю23760 0.0 103229
10:00+9юз12550 0.0 1031202
13:00+12зюз12425 0.0 1030575
16:00+11зюз125668 0.0 1028131
19:00+6ююз236965 0.0 102833
22:00+4ююз337563 0.0 102746